VESSELSAT 1 1 37840C 11058C 22182.97264099 .00000000 00000+0 00000+0 0 9996 2 37840 19.9611 153.8158 0013763 177.2161 182.8336 14.10952904553646 ORBCOMM FM109 1 40086C 14040A 22182.99156934 .00000000 00000+0 00000+0 0 27738 2 40086 47.0046 67.9026 0001982 8.1671 351.9245 14.55107311414606 ORBCOMM FM107 1 40087C 14040B 22182.94507508 .00000000 00000+0 00000+0 0 27832 2 40087 47.0065 68.8471 0001847 18.7668 341.3284 14.55094791414596 ORBCOMM FM106 1 40088C 14040C 22182.80562695 .00000000 00000+0 00000+0 0 28387 2 40088 47.0632 330.7224 0018447 102.8532 257.4419 14.64828276424965 ORBCOMM FM104 1 40090C 14040E 22182.80460032 .00000000 00000+0 00000+0 0 27819 2 40090 47.0064 91.1989 0018416 314.5415 45.3965 14.53711898416040 ORBCOMM FM103 1 40091C 14040F 22182.41956230 .00000000 00000+0 00000+0 0 28032 2 40091 47.0074 71.6361 0002407 353.0157 7.0693 14.55100869414529 ORBCOMM FM114 1 41179C 15081A 22182.94182940 .00000000 00000+0 00000+0 0 33859 2 41179 47.0037 338.7424 0001642 88.9332 271.1741 14.55105043424340 ORBCOMM FM119 1 41180C 15081B 22182.69666582 .00000000 00000+0 00000+0 0 33852 2 41180 47.0008 249.0906 0001680 181.4954 178.5925 14.55104750424630 ORBCOMM FM105 1 41181C 15081C 22182.65634504 .00000000 00000+0 00000+0 0 28032 2 41181 47.0005 156.1328 0001579 193.4061 166.6777 14.43578062413867 ORBCOMM FM110 1 41182C 15081D 22182.98848844 .00000000 00000+0 00000+0 0 33994 2 41182 47.0024 338.0112 0001838 242.0818 117.9880 14.55134661424323 ORBCOMM FM118 1 41183C 15081E 22182.96487705 .00000000 00000+0 00000+0 0 33785 2 41183 47.0045 338.2900 0001981 243.9098 116.1582 14.55129808423475 ORBCOMM FM112 1 41184C 15081F 22182.94867747 .00000000 00000+0 00000+0 0 33939 2 41184 46.9973 247.2445 0001782 174.0909 185.9996 14.55119338425507 ORBCOMM FM113 1 41185C 15081G 22182.99473882 .00000000 00000+0 00000+0 0 33758 2 41185 46.9995 247.1757 0001950 188.8842 171.2007 14.55113183425562 ORBCOMM FM115 1 41186C 15081H 22182.83554133 .00000000 00000+0 00000+0 0 33841 2 41186 46.9991 125.3004 0000831 252.4483 107.6312 14.58965430426260 ORBCOMM FM108 1 41187C 15081J 22182.95208609 .00000000 00000+0 00000+0 0 24175 2 41187 47.0035 158.3921 0001701 2.6538 357.4355 14.55104588436561 ORBCOMM FM117 1 41188C 15081K 22182.98589635 .00000000 00000+0 00000+0 0 33800 2 41188 46.9996 157.3511 0002010 32.9104 327.1905 14.55106737425852 ORBCOMM FM116 1 41189C 15081L 22182.97167932 .00000000 00000+0 00000+0 0 33891 2 41189 47.0000 247.1444 0001993 176.0891 184.0009 14.55119794424688